STARLINK-31548

operational
NORAD ID: 59193 Int'l Des: 2024-045 Owner: SPXS Country: US Constellation: starlink
LEOCIRCULAR

About STARLINK-31548

Description loading...

Live Position

Loading 3D Globe...

Upcoming Passes

Altitude History

Altitude vs Time

uPlot chart will show altitude changes over time

Two-Line Element Set

1 59193U 24045R 25250.45454247 .00008895 00000-0 33228-3 0 9992
2 59193 42.9991 47.7256 0001627 277.5167 82.5500 15.27587920 85138
Epoch: Sep 7, 2025 • Age: 29 hours

Current Status

Altitude 484.7 km
Velocity 7.63 km/s
Sub-Earth Point 30.73°N, 42.3°W
Launch Date Mar 11, 2024
Age 1.4 years
Type internet

Technical Details

Classification Payload
Mass 730.00 kg
Dry Mass 700.00 kg
Total Mass 730.00 kg
Length 0.30 m
Diameter 4.10 m
Span 29.00 m
Shape Box + pan
Manufacturer SPXS
Bus Type Starlink V2M
Phase Status In Orbit
Owner/State SPXS/US

Large Constellations

Loading constellations...